TimeEET,TemperatureF,Dew PointF,Humidity,Sea Level PressureIn,VisibilityMPH,Wind Direction,Wind SpeedMPH,Gust SpeedMPH,PrecipitationIn,Events,Conditions,WindDirDegrees,DateUTC
12:00 AM,64.4,46.4,52,30.04,-9999.0,NNW,6.9,-,N/A,,Clear,340,2012-11-23 22:00:00
1:00 AM,64.4,48.2,56,30.01,-9999.0,NNW,9.2,-,N/A,,Clear,330,2012-11-23 23:00:00
2:00 AM,63,47,46,30.02,6,North,8.1,,,,,0,2012-11-24 00:00:00
2:00 AM,62.6,48.2,59,30.01,-9999.0,North,8.1,-,N/A,,Clear,360,2012-11-24 00:00:00
3:00 AM,62.6,48.2,59,30.01,-9999.0,North,11.5,-,N/A,,Clear,10,2012-11-24 01:00:00
4:00 AM,60.8,46.4,59,30.01,-9999.0,North,9.2,-,N/A,,Clear,360,2012-11-24 02:00:00
5:00 AM,60.8,48.2,63,30.01,-9999.0,North,5.8,-,N/A,,Clear,360,2012-11-24 03:00:00
6:00 AM,59.0,48.2,67,30.04,-9999.0,North,5.8,-,N/A,,Clear,10,2012-11-24 04:00:00
7:00 AM,60.8,50.0,68,30.04,-9999.0,NNE,8.1,-,N/A,,Clear,20,2012-11-24 05:00:00
8:00 AM,63,50,54,30.06,6,North,6.9,,,,,0,2012-11-24 06:00:00
8:00 AM,62.6,50.0,63,30.06,-9999.0,North,6.9,-,N/A,,Clear,360,2012-11-24 06:00:00
9:00 AM,68.0,51.8,56,30.06,-9999.0,North,11.5,-,N/A,,Clear,360,2012-11-24 07:00:00
10:00 AM,71.6,51.8,50,30.06,-9999.0,North,11.5,-,N/A,,Clear,360,2012-11-24 08:00:00
11:00 AM,73.4,51.8,47,30.04,-9999.0,NNE,9.2,-,N/A,,Clear,20,2012-11-24 09:00:00
12:00 PM,77.0,51.8,41,30.01,-9999.0,NNE,6.9,-,N/A,,Clear,20,2012-11-24 10:00:00
1:00 PM,78.8,50.0,36,29.98,-9999.0,North,5.8,-,N/A,,Clear,360,2012-11-24 11:00:00
2:00 PM,80,49,23,29.94,6,NNW,8.1,,,,,340,2012-11-24 12:00:00
2:00 PM,78.8,48.2,34,29.95,-9999.0,NNW,8.1,-,N/A,,Clear,340,2012-11-24 12:00:00
3:00 PM,80.6,48.2,32,29.95,-9999.0,NNW,8.1,-,N/A,,Clear,340,2012-11-24 13:00:00
4:00 PM,78.8,48.2,34,29.95,-9999.0,NNW,6.9,-,N/A,,Clear,330,2012-11-24 14:00:00
5:00 PM,77.0,46.4,34,29.98,-9999.0,NNW,8.1,-,N/A,,Clear,330,2012-11-24 15:00:00
6:00 PM,75.2,44.6,34,29.98,-9999.0,NW,9.2,-,N/A,,Clear,310,2012-11-24 16:00:00
7:00 PM,73.4,42.8,33,30.01,-9999.0,North,8.1,-,N/A,,Clear,360,2012-11-24 17:00:00
8:00 PM,72,44,26,30.00,6,North,9.2,,,,,350,2012-11-24 18:00:00
8:00 PM,71.6,44.6,38,30.01,-9999.0,North,9.2,-,N/A,,Clear,350,2012-11-24 18:00:00
9:00 PM,69.8,42.8,38,30.01,-9999.0,NNW,10.4,-,N/A,,Clear,340,2012-11-24 19:00:00
10:00 PM,68.0,41.0,37,30.01,-9999.0,NNW,9.2,-,N/A,,Clear,340,2012-11-24 20:00:00
11:00 PM,66.2,41.0,40,30.01,-9999.0,NW,10.4,-,N/A,,Clear,310,2012-11-24 21:00:00